Flag for Canada Weather past 2 weeks in Pond Inlet, Nunavut Territory, Canada

Now
39 °F

Overcast.


Feels Like: 33 °F
Forecast: 36 / 42 °F
Wind: 9 mph from Southwest

Location: Pond Inlet

Current Time: Aug 23, 2014 at 12:41:58 AM

Latest Report: Aug 23, 2014 at 12:00 AM


Visibility: 9 mi

Pressure: 30.11 "Hg

Humidity: 87%

Dew point: 36 °F

Location of Pond InletLocation

Historic Weather in Pond Inlet — Graph

°F

Pond Inlet temperature yesterday

Maximum temperature yesterday: 43 °F (at 4:00 PM)
Minimum temperature yesterday: 37 °F (at 2:00 AM)
Average temperature yesterday: 40 °F

Past Weeks' High & Low Weather Summary

 TemperatureHumidityPressure
High54 °F (Aug 19, 12:00 PM)100% (Aug 8, 10:00 PM)30.24 "Hg (Aug 8, 10:00 PM)
Low32 °F (Aug 13, 3:00 AM)46% (Aug 18, 12:00 PM)29.39 "Hg (Aug 12, 10:00 PM)
Average40 °F82%29.77 "Hg
* Reported Aug 7 11:00 PM — Aug 22 11:00 PM, Pond Inlet, Weather by CustomWeather, © 2014

Note: Actual official high and low records may vary slightly from our data, if they occured in-between our weather recording intervals... More about our weather records

Advertising

Pond Inlet weather history for previous 24 hours

 ConditionsComfort  
Time TempWeatherWind HumidityBarometerVisibility
11:00 PM
Aug 22
39 °FOvercast.7 mph87%30.11 "Hg9 mi
10:00 PM39 °FOvercast.8 mph87%30.11 "Hg9 mi
9:00 PM41 °FOvercast.8 mph81%30.11 "Hg9 mi
8:00 PM41 °FOvercast.8 mph81%30.10 "Hg9 mi
7:00 PM43 °FPartly sunny.8 mph71%30.10 "Hg40 mi
6:00 PM43 °FPartly sunny.7 mph71%30.09 "Hg40 mi
5:00 PM43 °FPartly sunny.6 mph71%30.09 "Hg40 mi
4:00 PM43 °FPartly sunny.8 mph71%30.09 "Hg40 mi
3:00 PM41 °FPartly sunny.7 mph76%30.08 "Hg40 mi
2:00 PM41 °FMore clouds than sun.9 mph81%30.08 "Hg40 mi
1:00 PM41 °FPartly sunny.6 mph81%30.08 "Hg40 mi
12:00 PM39 °FBroken clouds.5 mph81%30.09 "Hg40 mi
11:00 AM39 °FCloudy.3 mph81%30.09 "Hg40 mi
10:01 AM39 °FMore clouds than sun.5 mph87%30.09 "Hg9 mi
9:51 AM39 °FLight rain. Cloudy.6 mph93%30.09 "Hg9 mi
9:00 AM39 °FCloudy.6 mph93%30.10 "Hg9 mi
8:49 AM39 °FMostly cloudy.5 mph93%30.10 "Hg9 mi
8:00 AM39 °FPartly sunny.5 mph87%30.10 "Hg9 mi
7:51 AM39 °FPartly sunny.5 mph87%30.11 "Hg9 mi
7:00 AM39 °FMostly cloudy.7 mph87%30.11 "Hg9 mi
6:00 AM37 °FOvercast.9 mph93%30.11 "Hg9 mi
5:00 AM37 °FOvercast.7 mph93%30.11 "Hg9 mi
4:00 AM37 °FOvercast.8 mph93%30.12 "Hg9 mi
3:00 AM37 °FOvercast.9 mph93%30.13 "Hg9 mi
2:00 AM37 °FOvercast.9 mph93%30.13 "Hg9 mi
1:00 AM39 °FMostly cloudy.8 mph87%30.14 "Hg9 mi
12:03 AM39 °FMostly cloudy.8 mph93%30.14 "Hg9 mi
Weather by CustomWeather, © 2014

See weather overviewHow to use our weather pages